This is the latest recevied weather packets stored in our database for station/object DL5RDP-9. If no packets are shown the sender has not sent any weather packets the latest 10 day(s).
| Time | Temp. | Humidity | Pressure | Rain* | Wind** | Luminosity | Snow |
|---|---|---|---|---|---|---|---|
| 1777839214 | 26.11° C | 31% | 1017.8 hPa | - | - | - | - |
| 1777835613 | 26.67° C | 29% | 1017.1 hPa | - | - | - | - |
| 1777832913 | 26.11° C | 28% | 1017.1 hPa | - | - | - | - |
| 1777832013 | 26.11° C | 27% | 1017 hPa | - | - | - | - |
| 1777831113 | 26.11° C | 26% | 1016.9 hPa | - | - | - | - |
| 1777820311 | 27.22° C | 29% | 1016.7 hPa | - | - | - | - |
| 1777818511 | 27.22° C | 29% | 1016.8 hPa | - | - | - | - |
| 1777816711 | 27.22° C | 30% | 1017.1 hPa | - | - | - | - |
| 1777814911 | 27.22° C | 30% | 1017.3 hPa | - | - | - | - |
| 1777809510 | 27.22° C | 29% | 1018.3 hPa | - | - | - | - |
| 1777807710 | 27.22° C | 29% | 1018.6 hPa | - | - | - | - |
| 1777804109 | 27.22° C | 29% | 1019.1 hPa | - | - | - | - |
| 1777800509 | 26.67° C | 29% | 1019.9 hPa | - | - | - | - |
| 1777799609 | 26.67° C | 29% | 1019.9 hPa | - | - | - | - |
| 1777798709 | 26.67° C | 29% | 1020 hPa | - | - | - | - |
| 1777797809 | 26.11° C | 29% | 1020.1 hPa | - | - | - | - |
| 1777796908 | 26.11° C | 29% | 1020.3 hPa | - | - | - | - |
| 1777796008 | 26.11° C | 29% | 1020.5 hPa | - | - | - | - |
| 1777795108 | 25.56° C | 29% | 1020.5 hPa | - | - | - | - |
| 1777794208 | 25.56° C | 29% | 1020.6 hPa | - | - | - | - |
| 1777793308 | 25.56° C | 29% | 1020.4 hPa | - | - | - | - |
| 1777792408 | 25.56° C | 30% | 1020.6 hPa | - | - | - | - |
| 1777791508 | 25.56° C | 29% | 1020.6 hPa | - | - | - | - |
| 1777789708 | 25.56° C | 29% | 1020.6 hPa | - | - | - | - |
| 1777788808 | 25.56° C | 29% | 1020.6 hPa | - | - | - | - |
* Rain since midnight (hover to see other rain measurements)
** Current wind speed in m/s (hover to see current wind gust speed)